User: anonymous   Login
Location: Unspecified
(0.0000°N, 0.0000°E)
Time: 03:35:45
(UTC+00:00)
Language:

APRIZESAT 3 - Orbit

View from above orbital plane
View from above orbital plane
View from above satellite
View from above satellite

Ground track
Ground track

The orbit data is extracted from the following two-line orbital elements,

1 35686U 09041F   16179.86838629  .00000178  00000-0  25782-4 0  9990
2 35686  98.2465 159.1246 0074900  85.0638 275.9122 14.86882079374535
Epoch (UTC): 27 June 2016 20:50:28
Eccentricity: 0.0074900
inclination: 98.2465°
perigee height: 555 km
apogee height: 660 km
right ascension of ascending node: 159.1246°
argument of perigee: 85.0638°
revolutions per day: 14.86882079
mean anomaly at epoch: 275.9122°
orbit number at epoch: 37453

The dashed part of the orbit path shows where the satellite is in the earth's shadow,  

DLR